This is the latest recevied weather packets stored in our database for station/object N6GPM. If no packets are shown the sender has not sent any weather packets the latest 1 day(s).
| Time | Temp. | Humidity | Pressure | Rain* | Wind** | Luminosity | Snow |
|---|---|---|---|---|---|---|---|
| 1778037371 | 13.89° C | 64% | 1018.6 hPa | 0 mm | 2.24 m/s, 282° | 0 W/m² | - |
| 1778037068 | 14.44° C | 63% | 1018.9 hPa | 0 mm | 3.13 m/s, 294° | 0 W/m² | - |
| 1778036767 | 14.44° C | 63% | 1018.5 hPa | 0 mm | 1.79 m/s, 263° | 0 W/m² | - |
| 1778036463 | 14.44° C | 62% | 1018.5 hPa | 0 mm | 1.34 m/s, 274° | 0 W/m² | - |
| 1778036160 | 14.44° C | 62% | 1018.6 hPa | 0 mm | 0.45 m/s, 279° | 0 W/m² | - |
| 1778035856 | 14.44° C | 62% | 1018.3 hPa | 0 mm | 1.34 m/s, 290° | 0 W/m² | - |
| 1778035554 | 14.44° C | 61% | 1018.1 hPa | 0 mm | 2.68 m/s, 278° | 0 W/m² | - |
| 1778035250 | 14.44° C | 61% | 1018 hPa | 0 mm | 0.89 m/s, 272° | 0 W/m² | - |
| 1778034946 | 14.44° C | 61% | 1017.9 hPa | 0 mm | 2.68 m/s, 278° | 1 W/m² | - |
| 1778034644 | 14.44° C | 61% | 1018 hPa | 0 mm | 1.34 m/s, 238° | 3 W/m² | - |
| 1778034341 | 14.44° C | 61% | 1017.7 hPa | 0 mm | 3.13 m/s, 243° | 8 W/m² | - |
| 1778034039 | 14.44° C | 60% | 1017.8 hPa | 0 mm | 2.68 m/s, 274° | 12 W/m² | - |
| 1778033736 | 15° C | 60% | 1017.9 hPa | 0 mm | 2.24 m/s, 267° | 17 W/m² | - |
| 1778033433 | 15° C | 60% | 1017.7 hPa | 0 mm | 2.24 m/s, 286° | 21 W/m² | - |
| 1778033130 | 15° C | 60% | 1018 hPa | 0 mm | 3.13 m/s, 279° | 26 W/m² | - |
| 1778032827 | 15° C | 60% | 1017.6 hPa | 0 mm | 4.02 m/s, 288° | 28 W/m² | - |
| 1778032525 | 15° C | 59% | 1017.8 hPa | 0 mm | 2.24 m/s, 310° | 33 W/m² | - |
| 1778032222 | 15° C | 58% | 1017.6 hPa | 0 mm | 4.02 m/s, 285° | 48 W/m² | - |
| 1778031919 | 15.56° C | 58% | 1017.5 hPa | 0 mm | 2.24 m/s, 287° | 47 W/m² | - |
| 1778031615 | 15.56° C | 58% | 1017.5 hPa | 0 mm | 3.13 m/s, 252° | 48 W/m² | - |
| 1778031313 | 15.56° C | 57% | 1017.4 hPa | 0 mm | 4.02 m/s, 270° | 55 W/m² | - |
| 1778031010 | 15.56° C | 57% | 1017.5 hPa | 0 mm | 3.13 m/s, 272° | 109 W/m² | - |
| 1778030706 | 16.11° C | 57% | 1017.4 hPa | 0 mm | 3.13 m/s, 278° | 81 W/m² | - |
| 1778030403 | 16.11° C | 56% | 1017.3 hPa | 0 mm | 3.13 m/s, 277° | 131 W/m² | - |
| 1778030100 | 16.11° C | 57% | 1017.2 hPa | 0 mm | 1.34 m/s, 287° | 146 W/m² | - |
* Rain latest hour (hover to see other rain measurements)
** Current wind speed in m/s (hover to see current wind gust speed)